FW0717 Weather Reports


time (UTC)temp
C
wind
direction
speed
KPH
gust
KPH
rain 1hr
cm
rain 24hr
cm
rain mn
cm
humidity
%
barometer
mb
20260510000008 28 344 0.0 1.6 0.00 0.00 0.00 74 1007.2
20260509235505 29 343 0.0 1.6 0.00 0.00 0.00 74 1007.3
20260509234506 29 343 0.0 3.2 0.00 0.00 0.00 73 1007.2
20260509234005 29 343 1.6 1.6 0.00 0.00 0.00 73 1007.2
20260509233505 29 63 0.0 1.6 0.00 0.00 0.00 72 1007.3
20260509232005 29 77 0.0 3.2 0.00 0.00 0.00 72 1007.2
20260509231505 30 77 1.6 3.2 0.00 0.00 0.00 71 1007.3
20260509231006 29 77 0.0 6.4 0.00 0.00 0.00 71 1007.2
20260509230505 30 77 1.6 6.4 0.00 0.00 0.00 71 1007.1
20260509225505 30 77 0.0 4.8 0.00 0.00 0.00 69 1007.0
20260509224506 30 77 1.6 6.4 0.00 0.00 0.00 67 1007.1
20260509224005 31 77 3.2 8.0 0.00 0.00 0.00 66 1007.0
20260509223505 31 36 3.2 6.4 0.00 0.00 0.00 66 1007.1
20260509222006 31 134 3.2 3.2 0.00 0.00 0.00 68 1006.9
20260509221506 31 134 0.0 6.4 0.00 0.00 0.00 65 1006.8
20260509221007 31 134 4.8 6.4 0.00 0.00 0.00 68 1006.8
20260509220504 30 143 1.6 4.8 0.00 0.00 0.00 67 1006.8
20260509220008 31 144 1.6 3.2 0.00 0.00 0.00 67 1006.9
20260509215505 31 123 1.6 6.4 0.00 0.00 0.00 65 1006.9
20260509215006 31 123 3.2 9.7 0.00 0.00 0.00 66 1006.9
20260509214505 31 126 3.2 6.4 0.00 0.00 0.00 65 1006.9
20260509214005 31 127 1.6 11.3 0.00 0.00 0.00 65 1007.0
20260509212505 31 163 1.6 4.8 0.00 0.00 0.00 63 1006.9
20260509212005 31 162 0.0 4.8 0.00 0.00 0.00 64 1006.9
20260509211505 31 162 0.0 4.8 0.00 0.00 0.00 64 1007.0
20260509211006 31 161 3.2 4.8 0.00 0.00 0.00 64 1007.1
20260509210505 31 159 3.2 8.0 0.00 0.00 0.00 64 1007.2
20260509210006 31 159 6.4 8.0 0.00 0.00 0.00 64 1007.2
20260509205505 31 159 1.6 4.8 0.00 0.00 0.00 64 1007.2
20260509205006 31 159 0.0 8.0 0.00 0.00 0.00 67 1007.4
20260509204505 31 157 3.2 8.0 0.00 0.00 0.00 67 1007.5
20260509204005 31 160 3.2 8.0 0.00 0.00 0.00 66 1007.4
20260509203505 31 159 1.6 4.8 0.00 0.00 0.00 67 1007.4
20260509203006 31 159 3.2 4.8 0.00 0.00 0.00 66 1007.4
20260509202504 31 158 1.6 3.2 0.00 0.00 0.00 67 1007.6
20260509202005 30 271 1.6 4.8 0.00 0.00 0.00 64 1007.6
20260509201505 31 271 0.0 11.3 0.00 0.00 0.00 65 1007.7
20260509201006 31 271 1.6 11.3 0.00 0.00 0.00 66 1007.8
20260509200506 31 272 4.8 9.7 0.00 0.00 0.00 66 1008.0
20260509195505 31 271 4.8 9.7 0.00 0.00 0.00 68 1008.1
20260509195005 30 192 1.6 6.4 0.00 0.00 0.00 69 1008.1
20260509194506 30 192 3.2 6.4 0.00 0.00 0.00 68 1008.1
20260509194005 30 192 0.0 6.4 0.00 0.00 0.00 70 1008.2
20260509193505 30 195 0.0 6.4 0.00 0.00 0.00 71 1008.3
20260509193005 30 250 1.6 6.4 0.00 0.00 0.00 70 1008.4
20260509192013 30 279 3.2 6.4 0.00 0.00 0.00 69 1008.4
20260509191505 30 292 4.8 6.4 0.00 0.00 0.00 71 1008.5
20260509191005 29 296 1.6 4.8 0.00 0.00 0.00 72 1008.5
20260509190506 29 5 0.0 3.2 0.00 0.00 0.00 73 1008.5
20260509190008 29 9 3.2 4.8 0.00 0.00 0.00 74 1008.5
20260509185504 29 337 1.6 4.8 0.00 0.00 0.00 75 1008.6
20260509185005 29 337 3.2 6.4 0.00 0.00 0.00 74 1008.8
20260509184506 28 338 4.8 6.4 0.00 0.00 0.00 75 1008.9
20260509183505 28 338 0.0 6.4 0.00 0.00 0.00 74 1009.0
20260509183005 28 338 4.8 6.4 0.00 0.00 0.00 75 1009.1
20260509182005 28 237 3.2 8.0 0.00 0.00 0.00 76 1009.2
20260509181505 28 237 0.0 8.0 0.00 0.00 0.00 75 1009.3
20260509181006 28 238 1.6 8.0 0.00 0.00 0.00 76 1009.4
20260509180506 28 173 3.2 6.4 0.00 0.00 0.00 76 1009.4
20260509180007 28 173 0.0 8.0 0.00 0.00 0.00 76 1009.4
20260509175005 28 245 0.0 4.8 0.00 0.00 0.00 77 1009.7
20260509174506 28 245 0.0 4.8 0.00 0.00 0.00 77 1009.6
20260509174005 28 248 1.6 8.0 0.00 0.00 0.00 77 1009.7
20260509173005 28 249 8.0 8.0 0.00 0.00 0.00 75 1009.7
20260509172505 28 194 1.6 8.0 0.00 0.00 0.00 76 1009.5
20260509171504 28 196 0.0 4.8 0.00 0.00 0.00 78 1009.6
20260509171005 28 196 0.0 4.8 0.00 0.00 0.00 77 1009.5
20260509170007 27 197 1.6 6.4 0.00 0.00 0.00 81 1009.5
20260509165005 27 137 0.0 11.3 0.00 0.00 0.00 83 1009.5
20260509164506 26 138 1.6 8.0 0.00 0.00 0.00 84 1009.5
20260509164005 26 138 1.6 4.8 0.00 0.00 0.00 84 1009.5
20260509163005 26 138 0.0 0.0 0.00 0.00 0.00 85 1009.6
20260509162506 26 138 0.0 0.0 0.00 0.00 0.00 85 1009.8
20260509162004 26 138 0.0 0.0 0.00 0.00 0.00 85 1009.8
20260509161505 26 138 0.0 0.0 0.00 0.00 0.00 85 1009.7
20260509160506 26 191 0.0 4.8 0.00 0.00 0.00 86 1009.8
20260509155504 26 171 3.2 6.4 0.00 0.00 0.00 88 1010.0
20260509155005 25 140 0.0 0.0 0.00 0.00 0.00 89 1010.0
20260509154506 25 144 0.0 0.0 0.00 0.00 0.00 90 1010.1
20260509154005 25 144 0.0 0.0 0.00 0.00 0.00 91 1010.0
20260509153506 25 150 0.0 0.0 0.00 0.00 0.00 92 1010.1
20260509153005 25 150 0.0 0.0 0.00 0.00 0.00 93 1010.2
20260509152505 25 150 0.0 0.0 0.00 0.00 0.00 93 1010.2
20260509151504 24 273 0.0 0.0 0.00 0.00 0.00 94 1010.1
20260509151005 24 297 0.0 0.0 0.00 0.00 0.00 94 1010.1
20260509150007 24 296 0.0 0.0 0.00 0.00 0.00 95 1010.0
20260509145504 24 296 0.0 0.0 0.00 0.00 0.00 95 1009.9
20260509145005 23 296 0.0 0.0 0.00 0.00 0.00 95 1009.8
20260509144506 23 286 0.0 0.0 0.00 0.00 0.00 95 1009.9
20260509144004 23 306 0.0 0.0 0.00 0.00 0.00 95 1009.8
20260509143504 23 306 0.0 0.0 0.00 0.00 0.00 95 1009.7
20260509143005 23 306 0.0 0.0 0.00 0.00 0.00 95 1009.7
20260509142506 23 69 0.0 0.0 0.00 0.00 0.00 95 1009.6
20260509142004 23 178 0.0 0.0 0.00 0.00 0.00 96 1009.5
20260509141504 23 176 0.0 0.0 0.00 0.00 0.00 96 1009.4
20260509141005 23 176 0.0 0.0 0.00 0.00 0.00 96 1009.3
20260509140505 23 176 0.0 0.0 0.00 0.00 0.00 95 1009.4
20260509135005 23 130 0.0 0.0 0.00 0.00 0.00 95 1009.5
20260509134505 23 130 0.0 0.0 0.00 0.00 0.00 96 1009.7
20260509134004 23 130 0.0 0.0 0.00 0.00 0.00 96 1009.7
20260509133504 23 130 0.0 0.0 0.00 0.00 0.00 96 1009.9
20260509133005 23 130 0.0 0.0 0.00 0.00 0.00 96 1009.9
20260509132505 23 130 0.0 0.0 0.00 0.00 0.00 96 1009.9
20260509131504 23 130 0.0 0.0 0.00 0.00 0.00 96 1010.1
20260509131004 23 130 0.0 0.0 0.00 0.00 0.00 96 1010.1
20260509130505 23 130 0.0 0.0 0.00 0.00 0.00 96 1009.9
20260509125504 23 130 0.0 0.0 0.00 0.00 0.00 96 1009.9
20260509125005 23 130 0.0 0.0 0.00 0.00 0.00 96 1010.1
20260509124503 22 130 0.0 0.0 0.00 0.00 0.00 96 1010.0
20260509124004 22 130 0.0 0.0 0.00 0.00 0.00 96 1009.9
20260509123503 22 130 0.0 0.0 0.00 0.00 0.00 96 1009.9
20260509123005 22 130 0.0 0.0 0.00 0.00 0.00 96 1010.0
20260509122507 22 130 0.0 0.0 0.00 0.00 0.00 96 1010.0
20260509122006 22 130 0.0 0.0 0.00 0.00 0.00 95 1009.9
20260509121506 22 130 0.0 0.0 0.00 0.00 0.00 95 1009.9
20260509121007 22 130 0.0 0.0 0.00 0.00 0.00 95 1009.7
20260509120506 22 130 0.0 0.0 0.00 0.00 0.00 95 1009.3
20260509120009 22 131 0.0 0.0 0.00 0.00 0.00 95 1009.2
20260509115506 22 131 0.0 0.0 0.00 0.00 0.00 95 1009.2
20260509114507 22 131 0.0 0.0 0.00 0.00 0.00 95 1009.3
20260509114006 22 131 0.0 0.0 0.00 0.00 0.00 95 1009.1
20260509113505 22 131 0.0 4.8 0.00 0.00 0.00 95 1009.2
20260509113007 22 131 1.6 4.8 0.00 0.00 0.00 95 1009.1
20260509112007 22 131 3.2 4.8 0.00 0.00 0.00 95 1009.0
20260509111006 22 130 0.0 0.0 0.00 0.00 0.00 95 1009.4
20260509110506 22 130 0.0 1.6 0.00 0.00 0.00 95 1009.5
20260509110008 22 130 0.0 3.2 0.00 0.00 0.00 95 1009.3
20260509105006 22 131 3.2 4.8 0.00 0.00 0.00 95 1009.6
20260509104507 22 131 1.6 4.8 0.00 0.00 0.00 95 1009.7
20260509103506 22 131 0.0 0.0 0.00 0.00 0.00 95 1009.6
20260509103006 22 131 0.0 0.0 0.00 0.00 0.00 95 1009.5
20260509102507 22 131 0.0 1.6 0.00 0.00 0.00 95 1009.4
20260509102006 22 131 0.0 4.8 0.00 0.00 0.00 95 1009.2
20260509101506 22 131 1.6 4.8 0.00 0.00 0.00 95 1009.0
20260509101007 22 131 0.0 4.8 0.00 0.00 0.00 95 1008.9
20260509100008 22 132 0.0 0.0 0.00 0.00 0.00 95 1008.5
20260509095006 22 132 0.0 0.0 0.00 0.00 0.00 95 1008.5
20260509094511 22 132 0.0 0.0 0.00 0.00 0.00 95 1008.6
20260509094006 22 132 0.0 0.0 0.00 0.00 0.00 95 1008.7
20260509093505 22 132 0.0 0.0 0.00 0.00 0.00 95 1008.8
20260509093006 22 132 0.0 0.0 0.00 0.00 0.00 95 1008.9
20260509091505 22 132 0.0 0.0 0.00 0.00 0.00 95 1009.1
20260509091006 22 132 0.0 0.0 0.00 0.00 0.00 95 1008.9
20260509090507 22 132 0.0 3.2 0.00 0.00 0.00 95 1009.1
20260509090010 22 132 1.6 4.8 0.00 0.00 0.00 95 1009.2
20260509085505 22 132 1.6 4.8 0.00 0.00 0.00 95 1009.3
20260509085007 22 131 0.0 4.8 0.00 0.00 0.00 94 1009.3
20260509084506 22 131 1.6 1.6 0.00 0.00 0.00 94 1009.3
20260509084005 22 131 0.0 0.0 0.00 0.00 0.00 94 1009.2
20260509082505 22 131 0.0 3.2 0.00 0.00 0.00 94 1009.1
20260509082006 22 131 0.0 3.2 0.00 0.00 0.00 94 1009.2
20260509081005 22 131 0.0 1.6 0.00 0.00 0.00 94 1009.1
20260509080505 22 131 0.0 3.2 0.00 0.00 0.00 94 1009.0
20260509080008 22 131 0.0 6.4 0.00 0.00 0.00 94 1008.9
20260509075507 22 131 0.0 6.4 0.00 0.00 0.00 94 1009.0
20260509075005 22 133 1.6 4.8 0.00 0.00 0.00 94 1009.0
20260509074505 22 133 1.6 4.8 0.00 0.00 0.00 94 1009.1
20260509073506 22 133 1.6 4.8 0.00 0.00 0.00 94 1009.1
20260509073005 22 133 0.0 3.2 0.00 0.00 0.00 94 1009.1
20260509072505 22 133 1.6 3.2 0.00 0.00 0.00 94 1009.2
20260509072008 22 133 0.0 4.8 0.00 0.00 0.00 94 1009.3
20260509071507 22 133 1.6 4.8 0.00 0.00 0.00 94 1009.2
20260509071005 22 133 0.0 0.0 0.00 0.00 0.00 94 1009.3
20260509070505 22 133 0.0 0.0 0.00 0.00 0.00 94 1009.4
20260509070008 22 133 0.0 0.0 0.00 0.00 0.00 94 1009.4
20260509065506 22 133 0.0 0.0 0.00 0.00 0.00 94 1009.5
20260509065005 22 133 0.0 0.0 0.00 0.00 0.00 94 1009.5
20260509064506 22 133 0.0 0.0 0.00 0.00 0.00 94 1009.4
20260509064006 22 133 0.0 0.0 0.00 0.00 0.00 94 1009.4
20260509063507 22 133 0.0 0.0 0.00 0.00 0.00 94 1009.4
20260509063006 22 133 0.0 0.0 0.00 0.00 0.00 94 1009.4
20260509062505 22 133 0.0 0.0 0.00 0.00 0.00 94 1009.4
20260509062006 22 133 0.0 0.0 0.00 0.00 0.00 94 1009.5
20260509061506 22 133 0.0 0.0 0.00 0.00 0.00 94 1009.7
20260509061006 22 133 0.0 0.0 0.00 0.00 0.00 94 1009.6
20260509060505 22 133 0.0 0.0 0.00 0.00 0.00 94 1009.6
20260509060008 22 133 0.0 4.8 0.00 0.00 0.00 94 1009.6
20260509055507 22 133 1.6 4.8 0.00 0.00 0.00 94 1009.6
20260509054508 22 133 0.0 3.2 0.00 0.00 0.00 94 1009.8
20260509054006 22 133 1.6 3.2 0.00 0.00 0.00 94 1009.8
20260509053506 22 133 0.0 4.8 0.00 0.00 0.00 94 1009.8
20260509053005 22 133 1.6 4.8 0.00 0.00 0.00 94 1009.7
20260509052507 22 133 1.6 3.2 0.00 0.00 0.00 93 1009.8
20260509052006 22 133 0.0 4.8 0.00 0.00 0.00 93 1009.8
20260509051509 22 133 4.8 4.8 0.00 0.00 0.00 93 1009.7
20260509051005 22 133 3.2 6.4 0.00 0.00 0.00 93 1009.6
20260509050505 22 133 4.8 8.0 0.00 0.00 0.00 93 1009.5
20260509050008 22 133 3.2 8.0 0.00 0.00 0.00 93 1009.8
20260509045506 22 134 1.6 6.4 0.00 0.00 0.00 93 1009.8
20260509045005 22 134 1.6 6.4 0.00 0.00 0.00 93 1009.8
20260509044504 22 115 1.6 9.7 0.00 0.00 0.00 93 1009.8
20260509043505 22 92 0.0 9.7 0.00 0.00 0.00 93 1009.8
20260509043006 22 92 0.0 9.7 0.00 0.00 0.00 93 1009.6
20260509042504 22 90 3.2 4.8 0.00 0.00 0.00 93 1009.6
20260509042005 22 90 0.0 11.3 0.00 0.00 0.00 93 1009.6
20260509041506 22 90 4.8 11.3 0.00 0.00 0.00 93 1009.7
20260509041004 22 94 3.2 9.7 0.00 0.00 0.00 93 1009.8
20260509040504 22 94 4.8 9.7 0.00 0.00 0.00 93 1009.8
20260509040007 22 94 3.2 6.4 0.00 0.00 0.00 93 1009.7
20260509035505 22 94 0.0 6.4 0.00 0.00 0.00 93 1009.6
20260509034504 22 94 0.0 6.4 0.00 0.00 0.00 93 1009.6
20260509034005 22 94 3.2 6.4 0.00 0.00 0.00 93 1009.6
20260509033504 22 94 1.6 4.8 0.00 0.00 0.00 93 1009.6
20260509033004 22 94 0.0 4.8 0.00 0.00 0.00 93 1009.5
20260509032504 22 94 3.2 9.7 0.00 0.00 0.00 93 1009.5
20260509031506 22 94 1.6 9.7 0.00 0.00 0.00 93 1009.4
20260509031009 22 94 1.6 9.7 0.00 0.00 0.00 93 1009.4
20260509030009 22 94 1.6 9.7 0.00 0.00 0.00 93 1009.3
20260509025506 22 94 0.0 12.9 0.00 0.00 0.00 93 1009.1
20260509025004 22 94 1.6 12.9 0.00 0.00 0.00 93 1009.2
20260509024506 22 107 3.2 9.7 0.00 0.00 0.00 92 1009.1
20260509024005 22 105 0.0 6.4 0.00 0.00 0.00 92 1009.2
20260509022504 22 105 0.0 9.7 0.00 0.00 0.00 92 1009.0
20260509021004 22 123 3.2 9.7 0.00 0.00 0.00 92 1009.0
20260509020506 22 123 1.6 11.3 0.00 0.00 0.00 92 1009.1
20260509020007 22 140 4.8 11.3 0.00 0.00 0.00 92 1009.0
20260509015505 22 93 4.8 4.8 0.00 0.00 0.00 92 1008.9
20260509014005 22 92 1.6 6.4 0.00 0.00 0.00 92 1008.9
20260509013507 22 92 3.2 6.4 0.00 0.00 0.00 92 1009.0
20260509013004 22 93 1.6 9.7 0.00 0.00 0.00 92 1008.8
20260509012503 22 92 4.8 9.7 0.00 0.00 0.00 92 1008.7
20260509011505 22 88 1.6 6.4 0.00 0.00 0.00 92 1008.7
20260509010506 22 87 0.0 3.2 0.00 0.00 0.00 92 1008.6
20260509010007 22 87 0.0 4.8 0.00 0.00 0.00 92 1008.5
20260509005505 22 87 0.0 6.4 0.00 0.00 0.00 91 1008.4
20260509005004 22 87 1.6 6.4 0.00 0.00 0.00 91 1008.5
20260509004504 22 87 0.0 6.4 0.00 0.00 0.00 91 1008.4
20260509004005 22 87 1.6 6.4 0.00 0.00 0.00 91 1008.4
20260509003505 22 86 0.0 3.2 0.00 0.00 0.00 91 1008.6
20260509003004 22 86 0.0 4.8 0.00 0.00 0.00 90 1008.6
20260509002503 23 86 1.6 4.8 0.00 0.00 0.00 90 1008.8
20260509002004 23 86 0.0 8.0 0.00 0.00 0.00 90 1008.9
20260509001004 23 103 0.0 6.4 0.00 0.00 0.00 89 1008.9